Location: ?????????
(41.2393°N, 22.9479°E)
Time: 05:31:54
(UTC+00:00)

YAOGAN 1 - Pass Details

Date: 17 November 2025
Orbit: 605 x 607 km, 97.8° (Epoch: 09 December)

Event Time Altitude Azimuth Distance (km) Brightness Sun altitude
Rises 16:26:22 0° 148° (SSE) 2,852 5.8 -14.9°
Reaches altitude 10° 16:28:37 10° 141° (SE) 1,953 4.9 -15.3°
Maximum altitude 16:32:35 41° 72° (ENE) 890 2.9 -16.0°
Drops below altitude 10° 16:36:36 10° 2° (N) 1,965 5.0 -16.8°
Sets 16:38:52 0° 356° (N) 2,873 5.9 -17.2°
